Torna al catalogo

CZ-6A DEB

AttivoSSO
NORAD 54637·DEBRIS·🇨🇳 China

Lanciato Nov 11, 2022 da Taiyuan Satellite Launch Center

Loading…

Prossimi Passaggi (prossime 24 ore)

TLE

AggiornatoSource: Space-Track

Epoca: Sep 14, 2026, 00:00 UTC

1 54637U 22151PP  26257.00040787  .00002746  00000-0  12900-2 0  9997
2 54637  98.8408 262.8103 0062866  86.7592 274.0774 14.19830189196631

Traccia CZ-6A DEB in tempo reale con AllMySat

Download on the App Store